Flag Weather past 2 weeks in Bad Homburg, Hesse, Germany

Now
47 °F

Fog.


Feels Like: 47 °F
Forecast: 48 / 61 °F
Wind: 1 mph from South

Location: Frankfurt / M-Flughafen

Current Time: Oct 31, 2014 at 11:02:54 AM

Latest Report: Oct 31, 2014 at 9:00 AM


Visibility: 0 mi

Pressure: 30.32 "Hg

Humidity: 99%

Dew point: 47 °F

Location of Bad HomburgLocation

Historic Weather in Bad Homburg — Graph

°F

Bad Homburg temperature yesterday

Maximum temperature yesterday: 56 °F (at 3:00 PM)
Minimum temperature yesterday: 48 °F (at 12:00 AM)
Average temperature yesterday: 51 °F

Past Weeks' High & Low Weather Summary

 TemperatureHumidityPressure
High71 °F (Oct 19, 4:00 PM)100% (Oct 17, 4:00 AM)30.36 "Hg (Oct 17, 4:00 AM)
Low38 °F (Oct 24, 4:00 AM)61% (Oct 20, 4:00 PM)29.58 "Hg (Oct 21, 6:00 PM)
Average52 °F88%30.12 "Hg
* Reported Oct 16 10:00 AM — Oct 31 9:00 AM, Bad Homburg, Weather by CustomWeather, © 2014

Note: Actual official high and low records may vary slightly from our data, if they occured in-between our weather recording intervals... More about our weather records

Advertising

Bad Homburg weather history for previous 24 hours

 ConditionsComfort  
Time TempWeatherWind HumidityBarometerVisibility
9:00 AM
Oct 31
47 °FFog.1 mph99%30.32 "Hg1 mi
8:00 AM48 °FFog.1 mph100%30.31 "Hg0 mi
7:00 AM48 °FFog.1 mph100%30.29 "Hg0 mi
6:00 AM46 °FFog.1 mph99%30.29 "Hg0 mi
5:00 AM47 °FFog.1 mph97%30.30 "Hg1 mi
3:00 AM50 °FFog.1 mph97%30.30 "Hg3 mi
2:00 AM51 °FFog.1 mph97%30.30 "Hg3 mi
1:00 AM51 °FFog.1 mph97%30.31 "Hg3 mi
12:00 AM52 °FFog.1 mph97%30.31 "Hg3 mi
11:00 PM
Oct 30
52 °FFog.1 mph97%30.30 "Hg3 mi
10:00 PM51 °FFog.1 mph97%30.31 "Hg3 mi
9:00 PM50 °FFog.1 mph97%30.30 "Hg3 mi
8:00 PM51 °FFog.1 mph97%30.30 "Hg3 mi
7:00 PM53 °FFog.1 mph95%30.29 "Hg4 mi
6:00 PM55 °FFog.1 mph94%30.29 "Hg4 mi
5:00 PM56 °FFog.1 mph91%30.28 "Hg4 mi
3:00 PM56 °FFog.1 mph86%30.27 "Hg4 mi
2:00 PM56 °FCool.1 mphN/AN/AN/A
1:00 PMN/AN/AN/AN/AN/A
12:00 PM54 °FFog.1 mph92%30.27 "Hg3 mi
11:00 AM53 °FFog.1 mph94%30.28 "Hg2 mi
Weather by CustomWeather, © 2014

See weather overviewHow to use our weather pages